OpenBCM V1.08-5-g2f4a (Linux)

Packet Radio Mailbox

IZ3LSV

[San Dona' di P. JN]

 Login: GUEST





  
I0OJJ  > KEPS     01.02.25 05:45l 336 Lines 15892 Bytes #79 (0) @ AMSAT
BID : ORB25032.1
Read: GUEST
Subj: 2Line Orbital Elements 25032.AMSAT
Path: IZ3LSV<I0OJJ<I0OJJ
Sent: 250201/0345z @:I0OJJ.ITA.EU [Rome] obcm1.08-6-g5b69

>From i0ojj%i0ojj.ita.eu@i0ojj.ampr.org Sat Feb  1 04:45:10 2025
Received: from i0ojj.ampr.org by i0ojj.ampr.org (JNOS2.0p.5) with SMTP
	id AA17020061 ; Sat, 01 Feb 2025 04:45:10 +0100
Message-Id: <ORB25032.1@i0ojj.bbs>
>From: i0ojj@i0ojj.ita.eu
X-JNOS-User-Port: Uplink   (I0OJJ-2 on port hub)  ->  Sending message

From: I0OJJ @ I0OJJ.ITA.EU (Gustavo)
To:   KEPS @ AMSAT
X-Info: This message was generated automatically


QST de W1STR

AMSAT Orbital Elements for Amateur Satellites in TLE Format
>From Orbital Analysis Office
New England Sci-Tech STEM Education Center
Natick, MA February 01, 2025
To all radio amateurs


These element sets describe the orbits of various satellites 
in use by the amateur radio community. For details see:
www.amsat.org/keplerian-elements-formats/

A daily update of element sets is available at:
www.amsat.org/tle/daily-bulletin.txt
or without bulletin text:
www.amsat.org/tle/dailytle.txt


AO-07
1 07530U 74089B   25031.54441502 -.00000041  00000-0  35300-4 0  9990
2 07530 101.9926  34.4385 0012225   9.6436 107.7640 12.53685663297651
UO-11
1 14781U 84021B   25031.44612179  .00003791  00000-0  41252-3 0  9998
2 14781  97.7378   0.5697 0009172  51.5384 308.6655 14.88595863182423
AO-27
1 22825U 93061C   25031.61197236  .00000315  00000-0  13765-3 0  9998
2 22825  98.7570  92.4165 0009297 126.9791 233.2244 14.30719741635276
FO-29
1 24278U 96046B   25031.51192698  .00000085  00000-0  12534-3 0  9991
2 24278  98.5884 302.3086 0349361 317.0621  40.3724 13.53234909405317
NOAA-15
1 25338U 98030A   25031.78980127  .00000390  00000-0  17850-3 0  9990
2 25338  98.5494  59.9383 0010558  22.2230 337.9406 14.26871653390039
GO-32
1 25397U 98043D   25031.50197210  .00000279  00000-0  14087-3 0  9997
2 25397  98.9550   8.0378 0000972 167.5084 192.6118 14.24245028379918
ISS
1 25544U 98067A   25031.91063657  .00009163  00000-0  16397-3 0  9996
2 25544  51.6369 262.0126 0001779 154.9367  20.9868 15.50752901494027
NO-44
1 26931U 01043C   25031.47669127  .00000516  00000-0  22468-3 0  9999
2 26931  67.0508 101.6111 0006130 262.7839  97.2566 14.31603615218621
SO-50
1 27607U 02058C   25030.52470596  .00002663  00000-0  35765-3 0  9991
2 27607  64.5526 241.7711 0040499   7.6384 352.5329 14.80863023190171
CO-55
1 27844U 03031E   25031.73637849  .00000834  00000-0  38355-3 0  9992
2 27844  98.6786  41.6701 0009335 195.4243 164.6652 14.23796353120330
CO-57
1 27848U 03031J   25031.48509455  .00000726  00000-0  34069-3 0  9997
2 27848  98.6811  41.5226 0008944 213.6750 146.3861 14.23160184120005
RS-22
1 27939U 03042A   25031.80429361  .00002891  00000-0  47179-3 0  9994
2 27939  98.3116 198.2917 0012513  60.1885  50.9238 14.71685253141888
NOAA-18
1 28654U 05018A   25031.79754264  .00000431  00000-0  25210-3 0  9995
2 28654  98.8539 112.6832 0015020 133.2013 227.0417 14.13503137 15550
CO-58
1 28895U 05043F   25031.37853218  .00003998  00000-0  67315-3 0  9996
2 28895  98.2274 174.3546 0014896   0.0440   0.0764 14.70052578 27951
CO-65
1 32785U 08021C   25031.54511929  .00009394  00000-0  72216-3 0  9999
2 32785  97.7665   2.1014 0008584 296.0966  63.9374 15.01911886909761
AAUSAT2
1 32788U 08021F   25031.69473455  .00091038  00000-0  19055-2 0  9996
2 32788  97.6056  22.7009 0007634  92.2497 267.9625 15.45088496913332
CO-66
1 32791U 08021J   25031.69136957  .00020659  00000-0  11597-2 0  9997
2 32791  97.7161   9.4355 0002346 228.2886 131.8144 15.13364811911042
RS-30
1 32953U 08025A   25031.79602466  .00000051  00000-0  29861-3 0  9993
2 32953  82.5055 307.2940 0019366 329.5589  30.4365 12.43158115757539
NOAA-19
1 33591U 09005A   25031.78305566  .00000353  00000-0  21232-3 0  9990
2 33591  99.0165  95.6729 0013798  11.5974 348.5513 14.13273936823917
SRMSAT
1 37841U 11058D   25031.64305044  .00000654  00000-0  21184-3 0  9999
2 37841  19.9698 214.7601 0011815  86.6068 338.7998 14.11350484686871
ZACUBE-1
1 39417U 13066B   25031.59855114  .00008137  00000-0  74609-3 0  9997
2 39417  97.7646 349.6285 0047673 121.4056 239.1840 14.94276296605635
Delfi-N3xt
1 39428U 13066N   25031.49531472  .00013332  00000-0  14511-2 0  9994
2 39428  97.8382 310.8628 0091806  65.2077 295.8654 14.85062871599895
GOMX-1
1 39430U 13066Q   25031.86697707  .00005180  00000-0  82331-3 0  9990
2 39430  97.7003 258.3607 0133261 243.9755 114.7678 14.66674837596533
LO-74
1 39440U 13066AA  25031.59009515  .00008412  00000-0  89090-3 0  9995
2 39440  97.8377 337.3289 0062676 244.5181 114.9543 14.87936786603443
AO-73
1 39444U 13066AE  25031.47053029  .00012235  00000-0  99809-3 0  9992
2 39444  97.7488 353.4724 0043707  98.3560 262.2621 14.98833599604223
DTUSAT-2
1 40030U 14033W   25031.39773434  .00012525  00000-0  88559-3 0  9992
2 40030  98.0399 357.3905 0011262 129.9958 230.2258 15.04982652576949
EO-80
1 40032U 14033Y   25031.49172288  .00012485  00000-0  88053-3 0  9999
2 40032  98.0308 357.3168 0011501  80.0695 280.1828 15.05074655576935
XW-2C
1 40906U 15049H   25031.81304152  .00466585  89737-4  12124-2 0  9997
2 40906  97.4393  66.0047 0004282 157.9197 202.2263 15.95014082520092
LILACSAT-2
1 40908U 15049K   25031.75493335  .00016227  00000-0  48878-3 0  9996
2 40908  97.5165  49.3183 0008263 260.2194  99.8116 15.34387082518444
IO-86
1 40931U 15052B   25029.03811298  .00001879  00000-0  16388-3 0  9994
2 40931   5.9985 178.0957 0012329  44.5838 315.5281 14.78544596504930
Horyu-4
1 41340U 16012D   25031.37043621  .00028629  00000-0  98957-3 0  9997
2 41340  30.9976 275.8082 0005882 160.5496 199.5372 15.28709766492949
Lapan A3
1 41603U 16040E   25031.78596116  .00006225  00000-0  22773-3 0  9998
2 41603  97.1391  41.5609 0011848  18.7305 341.4369 15.28332645478106
CAS-2T
1 41847U 16066G   25031.45148027  .00003746  00000-0  54480-3 0  9999
2 41847  98.4347 107.0148 0348066 208.7980 149.3602 14.42824409432397
CAS-4B
1 42759U 17034B   25031.76678546  .00047329  00000-0  94299-3 0  9993
2 42759  43.0137 359.4986 0014667 115.4612 244.7766 15.46036085422557
CAS-4A
1 42761U 17034D   25031.80062037  .00047343  00000-0  92914-3 0  9991
2 42761  43.0173 357.2992 0015931 122.8848 237.3546 15.46452967422578
TechnoSat
1 42829U 17042E   25031.71918828  .00005645  00000-0  45570-3 0  9998
2 42829  97.3914 206.6820 0012878  15.9203 344.2423 15.00154682411392
AO-91
1 43017U 17073E   25031.38446553  .00016340  00000-0  89274-3 0  9999
2 43017  97.5480 265.5307 0182467 246.3243 111.8740 15.01179841389807
S-Net D
1 43186U 18014G   25031.81157331  .00010074  00000-0  63122-3 0  9995
2 43186  97.5747 296.1432 0008369 315.0926  44.9625 15.09524440382931
S-Net B
1 43187U 18014H   25031.28517903  .00010115  00000-0  63410-3 0  9998
2 43187  97.5749 295.5882 0009045 311.0206  49.0241 15.09499196382855
S-Net A
1 43188U 18014J   25031.48091987  .00010384  00000-0  65044-3 0  9993
2 43188  97.5756 295.9159 0008918 311.7597  48.2869 15.09521953382880
S-Net C
1 43189U 18014K   25031.48616419  .00010134  00000-0  63512-3 0  9998
2 43189  97.5768 295.9128 0010321 302.1101  57.9126 15.09500360381438
Ten-Koh
1 43677U 18084G   25031.45171117  .00005828  00000-0  48261-3 0  9993
2 43677  98.0816 198.6226 0012401 337.5528  22.5149 14.99224314340881
PO-101
1 43678U 18084H   25031.79012213  .00003118  00000-0  27480-3 0  9992
2 43678  98.0900 203.1631 0008807 359.1337   0.9866 14.97204367341107
QO-100
1 43700U 18090A   25031.54540278  .00000150  00000-0  00000-0 0  9994
2 43700   0.0136  88.5401 0000982 232.8996  31.6690  1.00270846 22647
MinXSS-2
1 43758U 18099A   25031.60906256  .00022336  00000-0  10507-2 0  9990
2 43758  97.5215  97.6630 0012544 247.4770 112.5137 15.19507269337341
AO-95
1 43770U 18099N   25031.56534329  .00014520  00000-0  81642-3 0  9992
2 43770  97.5127  91.2797 0010611 303.5908  56.4310 15.13335683337017
RANGE-A
1 43773U 18099R   25031.55415116  .00008985  00000-0  60335-3 0  9990
2 43773  97.4692  83.7303 0010612 275.6085  84.3933 15.06981042336772
MOVE-II
1 43780U 18099Y   25031.75949240  .00066985  00000-0  16782-2 0  9990
2 43780  97.4859 101.6405 0003890 254.1718 105.9099 15.39817939337787
SNUSat 2
1 43782U 18099AA  25031.12392331  .00010195  00000-0  60762-3 0  9996
2 43782  97.4810  88.5895 0011751 238.3875 121.6209 15.11314351336928
SnugLite
1 43784U 18099AC  25031.55576145  .00014839  00000-0  82853-3 0  9996
2 43784  97.4628  88.3699 0002642 233.4137 126.6852 15.13625338337093
ITASat 1
1 43786U 18099AE  25031.60098344  .00010347  00000-0  63694-3 0  9996
2 43786  97.4778  88.9037 0013862 293.6552  66.3222 15.10110294336972
EAGLET 1
1 43790U 18099AJ  25031.57397480  .00008214  00000-0  54986-3 0  9994
2 43790  97.4967  89.1818 0011419 272.3063  87.6858 15.07119472336620
ESEO
1 43792U 18099AL  25031.57818812  .00002926  00000-0  22927-3 0  9997
2 43792  97.4653  84.1001 0009062 226.9746 133.0720 15.01713360336452
CSIM
1 43793U 18099AM  25031.74573187  .00075477  00000-0  18926-2 0  9994
2 43793  97.5031 103.5703 0007465 228.6593 131.4011 15.39733779337625
JO-97
1 43803U 18099AX  25031.57512528  .00018093  00000-0  94086-3 0  9992
2 43803  97.4870  92.0846 0007287 231.0693 128.9891 15.16092760337190
Suomi 100
1 43804U 18099AY  25031.60854162  .00014675  00000-0  80174-3 0  9995
2 43804  97.4940  91.7131 0012352 232.8091 127.2014 15.14344435337154
ISAT
1 43879U 18111D   25031.54821310  .00026745  00000-0  11574-2 0  9992
2 43879  97.6051 303.7350 0008173 298.1146  61.9263 15.22376771334011
UWE-4
1 43880U 18111E   25031.18399995  .00022539  00000-0  10507-2 0  9995
2 43880  97.5984 302.6054 0011963 309.2415  50.7757 15.19825909333932
Sparrow
1 43881U 18111F   25031.81580933  .00028089  00000-0  11848-2 0  9995
2 43881  97.6172 306.4458 0007390 347.4601  12.6450 15.23242217332131
